Powrót do katalogu

STARLINK-3113

AktywnyŁącznośćVLEO
NORAD 49735·PAYLOAD·🇺🇸 United States

Wystrzelony Dec 2, 2021 z Cape Canaveral Space Force Station

Loading…

Następne Przeloty (najbliższe 24 godziny)

TLE

ŚwieżeSource: CelesTrak SupGP

Epoka: Sep 15, 2026, 02:19 UTC

1 49735C 21115M   26258.09701389  .00012724  00000+0  37611-3 0  2582
2 49735  53.1599  14.6928 0001193  91.9175 357.5430 15.34370213    15

Śledź STARLINK-3113 w czasie rzeczywistym z AllMySat

Download on the App Store